Погода в Верхнедвинске

Хотите узнать прогноз погоды в Верхнедвинске? Тогда Вам сюда: Погода в Верхнедвинске

Поиск расширенной информации на нашем сайте:

Полезная информация:

Новости сайта



02.01.2020
Опубликован Долгосрочный прогноз погоды по городам России и ближнего зарубежья на январь 2020 года.
Карты: Прогноз на январь и февраль 2020 года, Сравнение прогнозируемой аномалии приземной температуры воздуха на январь 2020 года по разным моделям.




Погода в Верхнедвинске - сегодня

Время (UTC), дата Ветер
(°,м/с) 
Видим.   Явления Облачность Т
(°С)
Тd
(°С)
f(%) Тe
(°С)
Pmin
(гПа)
dP
(гПа)
Po
(мм)
O2
(г/м3)
Тmin Tmax R s Состояние
почвы
09 22.10.21 210 (ЮЗ) 6-13{18}  14000 м    9/9 870 м 
[Sc]
+7.6 +3.1 73 +6  994.9  2.4  734  287           
12 22.10.21 200 (Ю) 10-17{19}  15000 м  {ливн. осадки}  9/8 300 м кучево-дожд., средняя 
[Cb cap|Ac trans]
+8.1 +3.2 71 +5  997.2  2.3  736  288      0.1     
15 22.10.21 190 (Ю) 5{17}  10 км  {ливн. осадки}  9/8 300 м кучево-дожд., средняя 
[Cb cap|Ac trans]
+6.9 +3.1 77 +5  998.2  0.9  737  289           
18 22.10.21 170 (Ю) 7-12{14}  12000 м  {ливн. осадки}  9/0 средняя 
[Ac trans]
+7.2 +2.7 73 +5  998  -0.2  737  289    +9.2  0.6     
21 22.10.21 180 (Ю) 6-12{14}  10 км  слаб. дождь  10/0 средняя 
[As op]
+6.9 +3.3 78 +5  997.4  -0.6  736  289           
00 23.10.21 180 (Ю) 6-12{13}  12000 м  в посл. час дождь  9/9 600 м 
[Sc]
+6.2 +3.7 84 +4  996.7  -0.7  736  289      0.0     
03 23.10.21 220 (ЮЗ) 5{16}  15000 м  {ливн. осадки}  9/9 630 м кучево-дожд. 
[Cb cap]
+4.8 +3.8 93 +3  999.6  2.7  738  291      0.9     
06 23.10.21 200 (Ю) 4{11}  17000 м  {ливн. осадки}  9/9 600 м 
[Sc]
+4.9 +2.9 87 +3  1001.8  2.2  739  292  +4.2    0.9     
09 23.10.21 190 (Ю) 6-11{13}  10 км  в посл. час ливневой дождь  9/9 480 м кучево-дожд. 
[Cb cap]
+5.4 +3.4 87 +3  1004  2.2  741  292           
12 23.10.21 210 (ЮЗ) 7-12{12}  15000 м  {ливн. осадки}  10/8 800 м кучево-дожд., средняя 
[Cb cap|As trans]
+7.4 +3.1 74 +5  1005.7  1.8  742  291      0.0     
15 23.10.21 250 (З) 6-11{14}  8000 м  слаб. ливневой дождь  9/9 840 м кучево-дожд., средняя 
[Cb cap|Ac trans]
+6.7 +3 77 +5  1008.2  2.4  744  292           
18 23.10.21 270 (З) 4{11}  12000 м  в посл. час ливневой дождь  9/8 600 м кучево-дожд., средняя, верхняя 
[Cb cap|Ac trans|Ci fib]
+4.4 +2.7 89 +3  1011.7  3.3  747  296    +7.7  0.7     
21 23.10.21 270 (З) 10 км    9/9 750 м 
[Sc]
+4.1 +1.8 85 +2  1014.7  2.9  749  297           
00 24.10.21 270 (З) 10 км    10/10 420 м 
[St]
+3.4 +1.6 88 +1  1017.7  751  299           
03 24.10.21 290 (З) 3{10}  10 км  в посл. час ливневой дождь  9/8 420 м средняя 
[St|Ac trans]
+2 +0.7 91 +1  1021  3.1  753  301      0.0     
06 24.10.21 280 (З) 10 км  в посл. час ливневой снег  8/4 600 м кучево-дожд., средняя 
[Cb cap|Ac trans]
+1.4 +0.5 94 1023.8  2.7  755  303  +0.8    0.3     
09 24.10.21 300 (СЗ) 15000 м    8/8 630 м 
[Sc]
+2.4 -1.6 75 +1  1026.1  2.4  757  303           
12 24.10.21 280 (З) 15000 м    4/4 600 м 
[Sc]
+4.8 -2.8 58 +3  1027.4  1.4  758  301           
15 24.10.21 260 (З) 12000 м    9/0 средняя 
[Ac trans]
+3.6 -1.2 71 +3  1028.7  1.2  759  302           
18 24.10.21 240 (ЮЗ) 10 км    6/0 средняя, верхняя 
[Ac trans|Ci fib]
+1.9 +0 87 1029.5  0.7  760  304    +5.2       
21 24.10.21 170 (Ю) 10 км    4/0 средняя 
[Ac trans]
+1.1 +0.1 93 +2  1029.6  760  305           
00 25.10.21 150 (ЮВ) 10 км    4/0 средняя 
[Ac trans]
-0.4 -0.8 97 1029.8  0.1  760  307           
03 25.10.21 150 (ЮВ) 10 км    1/0 средняя 
[Ac trans]
-0.6 -1.2 96 -1  1029.5  -0.3  759  307           
06 25.10.21 150 (ЮВ) 6000 м  дымка  4/0 средняя, верхняя 
[Ac trans|Ci fib]
-0.9 -1.3 97 -2  1028.9  -0.6  759  307  -1.1         
09 25.10.21 190 (Ю) 15000 м    ясно 
+5.5 +1.8 77 +4  1028.2  -0.3  759  299           
Время (UTC), дата Ветер
(°,м/с) 
Видим.   Явления Облачность Т
(°С)
Тd
(°С)
f(%) Тe
(°С)
Pmin
(гПа)
dP
(гПа)
Po
(мм)
O2
(г/м3)
Тmin Tmax R s Состояние
почвы

Для получения пояснительной информации подведите курсор к названию столбца.

ПОГОДА в Верхнедвинске - архив

Всё, что Вы хотите узнать о погоде в Верхнедвинске - удобно и подробно!

Выберите нужную дату (начиная с 1 января 2019* года) и нажмите кнопку "Найти".
Будут отображены архивные сводки погоды по пункту Верхнедвинск, начиная с указанной даты.


Отображать данные в формате CSV (для использования в таблицах Excel)


Внимание! Наш архив погоды предназначен исключительно для личного некоммерческого использования в познавательных целях. Если Вам необходимы официальные справки о состоянии погоды (для производственных, юридических, коммерческих и т.п. целей), обращайтесь в органы Росгидромета.

*Примечание: данная дата относится к архиву по метеостанциям СССР (Россия, СНГ, Балтия).
Архив по метеостанциям Зарубежной Европы и Азии (кроме Китая) хранится 10 дней, по другим регионам земного шара (Китай, Африка, Америка, Австралия, Океания) - 1 день.

Верхнедвинск - район местоположения метеостанции


Название, широта, долгота, высота метеостанции:
Верхнедвинск 55.8°ш. 27.9°д. 132 м над ур. моря [Беларусь]

Дополнительная информация

В oтличие oт бoльшинства пoгoдных сайтoв мы публикуем пoдрoбную метеoинфoрмацию в детальнoм прoфессиoнальнoм фoрмате.

Характеристики температуры и влажнoсти вoздуха измеряются на высoте 2 м в тени вдали oт зданий и деревьев.
Скoрoсть ветра измеряется на высoте 10 м (на урoвне рoста челoвека скoрoсть ветра ниже в 1.5-2 раза). Если метеoстанция нахoдится в гoрoде или в лесу, тo скoрoсть ветра занижена на 2-4 м/с пo сравнению с oткрытым местoм. Скoрoсть ветра над акватoриями крупных рек и oзёр, а также на вершинах хoлмoв на 2-5 м/с выше, чем в oбычных услoвиях.
Атмoсфернoе давление в разных тoчках местнoсти мoжет значительнo oтличаться oт давления на метеoстанции, в зависимoсти oт услoвий рельефа (при пoдъёме на 10 м давление пoнижается примернo на 1 мм рт.ст.).